Location: Altenst�hlen
(53.5567°N, 8.9425°E)
Time: 07:50:58
(UTC+00:00)

ATLAS 5 CENTAUR R/B - Pass Details

Date: 23 October 2019
Orbit: 563 x 1096 km, 63.3° (Epoch: 19 November)

Event Time Altitude Azimuth Distance (km) Brightness Sun altitude
Rises 19:36:59 0° 297° (WNW) 3,045 6.3 -30.8°
Reaches altitude 10° 19:39:26 10° 308° (NW) 2,207 5.2 -31.1°
Enters shadow 19:43:21 30° 358° (N) 1,389 3.5 -31.6°
